TimeEST,TemperatureF,Dew PointF,Humidity,Sea Level PressureIn,VisibilityMPH,Wind Direction,Wind SpeedMPH,Gust SpeedMPH,PrecipitationIn,Events,Conditions,WindDirDegrees,DateUTC
12:56 AM,27.0,6.1,41,29.97,10.0,NW,6.9,-,N/A,,Overcast,310,2013-02-05 05:56:00
1:56 AM,26.1,6.1,43,29.96,10.0,NNW,3.5,-,N/A,,Overcast,340,2013-02-05 06:56:00
2:56 AM,27.0,8.1,45,29.96,10.0,Calm,Calm,-,N/A,,Overcast,0,2013-02-05 07:56:00
3:56 AM,27.0,10.0,49,29.96,10.0,North,3.5,-,N/A,,Overcast,350,2013-02-05 08:56:00
4:56 AM,26.1,12.9,58,29.96,7.0,North,3.5,-,0.00,Snow,Light Snow,350,2013-02-05 09:56:00
5:56 AM,26.1,19.0,75,29.95,6.0,North,5.8,-,0.00,Snow,Light Snow,10,2013-02-05 10:56:00
6:56 AM,25.0,19.9,81,29.97,5.0,North,8.1,-,0.00,Snow,Light Snow,10,2013-02-05 11:56:00
7:56 AM,25.0,19.9,81,29.99,4.0,North,5.8,-,0.00,Snow,Light Snow,10,2013-02-05 12:56:00
8:05 AM,24.8,19.4,80,29.99,2.0,NNE,8.1,-,0.00,Snow,Light Snow,20,2013-02-05 13:05:00
8:38 AM,24.8,21.2,86,29.99,4.0,NNE,6.9,-,0.00,Snow,Light Snow,20,2013-02-05 13:38:00
8:56 AM,25.0,21.0,85,29.99,4.0,NNE,5.8,-,0.00,Snow,Light Snow,20,2013-02-05 13:56:00
9:40 AM,26.6,21.2,80,30.00,4.0,NE,6.9,-,0.00,,Haze,50,2013-02-05 14:40:00
9:56 AM,26.1,21.0,81,30.00,4.0,NE,8.1,-,0.00,,Haze,40,2013-02-05 14:56:00
10:56 AM,26.1,19.9,78,30.01,5.0,NE,6.9,-,N/A,,Haze,40,2013-02-05 15:56:00
11:56 AM,26.1,21.0,81,29.99,6.0,NNE,5.8,-,N/A,,Haze,30,2013-02-05 16:56:00
12:56 PM,27.0,21.9,81,29.97,6.0,NNE,8.1,-,N/A,,Haze,30,2013-02-05 17:56:00
1:56 PM,27.0,21.0,78,29.96,7.0,NE,6.9,-,N/A,,Overcast,40,2013-02-05 18:56:00
2:56 PM,27.0,21.9,81,29.94,3.0,ENE,6.9,-,0.00,Snow,Light Snow,60,2013-02-05 19:56:00
3:18 PM,26.6,21.2,80,29.93,2.0,ENE,9.2,-,0.00,Snow,Light Snow,70,2013-02-05 20:18:00
3:31 PM,26.6,23.0,86,29.93,4.0,NE,9.2,-,0.00,Snow,Light Snow,50,2013-02-05 20:31:00
3:56 PM,27.0,23.0,85,29.94,4.0,ENE,6.9,-,0.00,,Overcast,60,2013-02-05 20:56:00
4:54 PM,26.6,23.0,86,29.94,1.8,NNE,5.8,-,0.00,Snow,Light Snow,30,2013-02-05 21:54:00
4:56 PM,27.0,24.1,89,29.94,1.8,NNE,5.8,-,0.00,Snow,Light Snow,30,2013-02-05 21:56:00
5:24 PM,26.6,24.8,93,29.94,3.0,NNE,5.8,-,0.00,Snow,Light Snow,20,2013-02-05 22:24:00
5:56 PM,26.1,24.1,92,29.93,6.0,NNE,9.2,-,0.00,,Overcast,30,2013-02-05 22:56:00
6:56 PM,26.1,24.1,92,29.94,8.0,NNE,8.1,-,N/A,,Overcast,30,2013-02-05 23:56:00
7:15 PM,26.6,24.8,93,29.94,8.0,NNE,5.8,-,N/A,,Overcast,30,2013-02-06 00:15:00
7:56 PM,27.0,24.1,89,29.93,8.0,NNE,4.6,-,N/A,,Overcast,30,2013-02-06 00:56:00
8:56 PM,27.0,24.1,89,29.92,8.0,North,8.1,-,N/A,,Overcast,10,2013-02-06 01:56:00
9:56 PM,27.0,24.1,89,29.93,8.0,North,5.8,-,N/A,,Overcast,10,2013-02-06 02:56:00
10:56 PM,27.0,24.1,89,29.91,7.0,NNE,8.1,-,N/A,,Overcast,20,2013-02-06 03:56:00
11:56 PM,27.0,24.1,89,29.92,7.0,North,6.9,-,N/A,,Overcast,350,2013-02-06 04:56:00